Location: Boitzum
(52.1496°N, 9.6943°E)
Time: 23:31:32
(UTC+00:00)

Meteor 1-24 Rocket - Pass Details

Date: 13 January 2026
Orbit: 790 x 925 km, 81.3° (Epoch: 17 February)

Event Time Altitude Azimuth Distance (km) Brightness Sun altitude
Rises 06:37:09 0° 345° (NNW) 3,558 6.5 -7.1°
Reaches altitude 10° 06:39:38 10° 342° (NNW) 2,623 5.9 -6.8°
Maximum altitude 06:45:34 64° 263° (W) 1,020 4.0 -6.0°
Drops below altitude 10° 06:51:30 10° 183° (S) 2,616 6.6 -5.1°
Sets 06:53:58 0° 180° (S) 3,548 7.4 -4.8°
